TimeCEST,TemperatureF,Dew PointF,Humidity,Sea Level PressureIn,VisibilityMPH,Wind Direction,Wind SpeedMPH,Gust SpeedMPH,PrecipitationIn,Events,Conditions,WindDirDegrees,DateUTC
12:00 AM,66.2,55.4,68,30.15,6.2,SE,11.5,-,N/A,,Scattered Clouds,140,2013-08-21 22:00:00
12:30 AM,64.4,55.4,73,30.15,6.2,SE,8.1,-,N/A,,Mostly Cloudy,130,2013-08-21 22:30:00
1:00 AM,62.6,55.4,77,30.15,6.2,SE,5.8,-,N/A,,Scattered Clouds,140,2013-08-21 23:00:00
1:30 AM,62.6,53.6,72,30.15,6.2,SE,8.1,-,N/A,,Partly Cloudy,130,2013-08-21 23:30:00
2:00 AM,62.6,53.6,72,30.15,-9999.0,Variable,2.3,-,N/A,,Clear,0,2013-08-22 00:00:00
2:30 AM,60.8,53.6,77,30.12,-9999.0,Variable,3.5,-,N/A,,Clear,0,2013-08-22 00:30:00
3:00 AM,59.0,53.6,82,30.12,-9999.0,Variable,2.3,-,N/A,,Clear,0,2013-08-22 01:00:00
3:30 AM,59.0,53.6,82,30.12,-9999.0,Variable,3.5,-,N/A,,Clear,0,2013-08-22 01:30:00
4:00 AM,59.0,53.6,82,30.12,-9999.0,Variable,3.5,-,N/A,,Clear,0,2013-08-22 02:00:00
4:30 AM,57.2,53.6,88,30.12,-9999.0,Variable,1.2,-,N/A,,Clear,0,2013-08-22 02:30:00
5:00 AM,55.4,51.8,88,30.12,-9999.0,Variable,1.2,-,N/A,,Clear,0,2013-08-22 03:00:00
5:30 AM,55.4,51.8,88,30.12,-9999.0,ESE,11.5,41.4,N/A,,Clear,110,2013-08-22 03:30:00
6:00 AM,55.4,53.6,94,30.12,-9999.0,Variable,1.2,-,N/A,,Clear,0,2013-08-22 04:00:00
6:30 AM,55.4,53.6,94,30.12,-9999.0,Variable,2.3,-,N/A,,Clear,0,2013-08-22 04:30:00
7:00 AM,59.0,55.4,88,30.12,-9999.0,Calm,Calm,-,N/A,,Clear,0,2013-08-22 05:00:00
7:30 AM,60.8,57.2,88,30.12,-9999.0,Calm,Calm,-,N/A,,Clear,0,2013-08-22 05:30:00
8:00 AM,64.4,55.4,73,30.12,-9999.0,Variable,3.5,-,N/A,,Clear,0,2013-08-22 06:00:00
8:30 AM,64.4,53.6,68,30.12,-9999.0,Variable,3.5,-,N/A,,Clear,0,2013-08-22 06:30:00
9:00 AM,68.0,55.4,64,30.12,-9999.0,Variable,2.3,-,N/A,,Clear,0,2013-08-22 07:00:00
9:30 AM,66.2,55.4,68,30.12,6.2,Variable,3.5,-,N/A,,Scattered Clouds,0,2013-08-22 07:30:00
10:00 AM,68.0,55.4,64,30.12,6.2,NE,4.6,-,N/A,,Partly Cloudy,50,2013-08-22 08:00:00
10:30 AM,71.6,55.4,57,30.12,6.2,East,4.6,-,N/A,,Mostly Cloudy,90,2013-08-22 08:30:00
11:00 AM,71.6,55.4,57,30.12,6.2,West,4.6,-,N/A,,Partly Cloudy,270,2013-08-22 09:00:00
11:30 AM,73.4,55.4,53,30.12,6.2,South,4.6,-,N/A,,Partly Cloudy,190,2013-08-22 09:30:00
12:00 PM,73.4,55.4,53,30.12,6.2,SSE,4.6,-,N/A,,Mostly Cloudy,160,2013-08-22 10:00:00
12:30 PM,75.2,55.4,50,30.09,6.2,SSW,4.6,-,N/A,,Mostly Cloudy,200,2013-08-22 10:30:00
1:00 PM,75.2,55.4,50,30.09,6.2,Variable,3.5,-,N/A,,Mostly Cloudy,0,2013-08-22 11:00:00
1:30 PM,75.2,53.6,47,30.09,6.2,SSE,5.8,-,N/A,,Mostly Cloudy,150,2013-08-22 11:30:00
2:00 PM,78.8,53.6,42,30.09,6.2,Variable,3.5,-,N/A,,Mostly Cloudy,0,2013-08-22 12:00:00
2:30 PM,77.0,53.6,44,30.09,-9999.0,NE,5.8,-,N/A,,Clear,40,2013-08-22 12:30:00
3:00 PM,77.0,53.6,44,30.06,-9999.0,WSW,4.6,-,N/A,,Clear,240,2013-08-22 13:00:00
3:30 PM,78.8,53.6,42,30.06,-9999.0,Variable,3.5,-,N/A,,Clear,0,2013-08-22 13:30:00
4:00 PM,80.6,53.6,39,30.06,-9999.0,South,5.8,-,N/A,,Clear,180,2013-08-22 14:00:00
4:30 PM,78.8,53.6,42,30.06,-9999.0,SSW,4.6,-,N/A,,Clear,200,2013-08-22 14:30:00
5:00 PM,78.8,53.6,42,30.04,-9999.0,WNW,4.6,-,N/A,,Clear,300,2013-08-22 15:00:00
5:30 PM,78.8,53.6,42,30.04,-9999.0,Variable,2.3,-,N/A,,Clear,0,2013-08-22 15:30:00
6:00 PM,78.8,53.6,42,30.04,-9999.0,Variable,3.5,-,N/A,,Clear,0,2013-08-22 16:00:00
6:30 PM,78.8,53.6,42,30.04,-9999.0,Variable,3.5,-,N/A,,Clear,0,2013-08-22 16:30:00
7:00 PM,77.0,53.6,44,30.04,-9999.0,Variable,1.2,-,N/A,,Clear,0,2013-08-22 17:00:00
7:30 PM,75.2,53.6,47,30.04,-9999.0,Variable,2.3,-,N/A,,Clear,0,2013-08-22 17:30:00
8:00 PM,73.4,55.4,53,30.04,-9999.0,East,8.1,-,N/A,,Clear,90,2013-08-22 18:00:00
8:30 PM,71.6,55.4,57,30.04,-9999.0,East,5.8,-,N/A,,Clear,80,2013-08-22 18:30:00
9:00 PM,69.8,55.4,60,30.06,-9999.0,East,5.8,-,N/A,,Clear,100,2013-08-22 19:00:00
9:30 PM,68.0,55.4,64,30.06,-9999.0,East,4.6,-,N/A,,Clear,80,2013-08-22 19:30:00
10:00 PM,68.0,55.4,64,30.06,-9999.0,Variable,1.2,-,N/A,,Clear,0,2013-08-22 20:00:00
10:30 PM,64.4,55.4,73,30.06,-9999.0,Variable,2.3,-,N/A,,Clear,0,2013-08-22 20:30:00
11:00 PM,69.8,53.6,56,30.06,-9999.0,East,5.8,-,N/A,,Clear,80,2013-08-22 21:00:00
11:30 PM,68.0,53.6,60,30.09,-9999.0,East,9.2,-,N/A,,Clear,90,2013-08-22 21:30:00